User: anonymous   Login
Location: Sunrise Point
(46.9200°N, 121.5900°W)
Time: 09:00:44
(UTC-07:00)
Language:

Cosmos 2058 - Orbit

View from above orbital plane
View from above orbital plane
View from above satellite
View from above satellite

Ground track
Ground track

The orbit data is extracted from the following two-line orbital elements,

1 20465U 90010A   15115.13465954  .00003528  00000-0  30909-3 0  9999
2 20465 082.4891 281.1417 0017081 057.2103 303.0762 14.96302261368035
Epoch (UTC): 25 April 2015 03:13:54
Eccentricity: 0.0017081
inclination: 82.4891°
perigee height: 566 km
apogee height: 590 km
right ascension of ascending node: 281.1417°
argument of perigee: 57.2103°
revolutions per day: 14.96302261
mean anomaly at epoch: 303.0762°
orbit number at epoch: 36803

The dashed part of the orbit path shows where the satellite is in the earth's shadow,  

DLR